Cloud_Cover
99 6 7 10 5 2 0 0 0 0 0 0 0 0 1 2 5 0 0 0 0 0 4 6 0 0 0 0 0 0 0 0 0 0 0 0 0 0 0 0 0 0 0 0 0
100 100 23 5 5 5 9 4 5 5 4 3 5 4 5 5 5 0 0 1 5 0 2 5 3 5 0 0 0 0 0 0 0 0 0 0 0 0 0 0 0 0 0 0 0
100 100 100 31 5 5 17 5 83 96 13 5 5 5 5 5 5 5 22 5 5 5 4 14 5 52 5 0 3 0 0 0 0 0 0 0 0 0 0 0 0 0 0 0 0
100 100 100 100 45 5 7 50 62 86 64 24 68 33 62 35 41 41 5 9 41 23 5 3 5 92 58 3 12 7 0 0 0 0 0 0 0 0 0 0 0 0 0 0 0
100 100 100 100 99 44 74 39 86 44 67 87 78 82 63 27 94 14 79 54 5 5 14 5 4 5 34 82 8 19 1 0 0 0 0 0 0 0 0 0 0 0 0 0 0
100 100 100 100 100 61 44 100 63 72 62 89 100 94 59 27 32 36 85 88 30 6 14 19 14 5 23 100 93 14 5 0 0 0 0 0 0 0 0 0 0 0 0 0 0
100 100 100 100 100 100 99 63 41 84 78 100 98 84 83 6 16 13 6 12 5 5 6 47 38 9 7 76 100 82 5 0 0 0 0 0 0 0 0 0 0 0 0 0 0
100 100 100 100 100 100 100 99 100 79 92 57 98 74 40 78 85 32 53 43 6 5 6 5 10 10 6 73 94 29 4 5 5 0 0 0 0 0 0 0 0 0 0 0 0
100 100 100 100 100 100 100 100 100 91 97 89 76 74 97 87 69 47 75 67 45 8 5 8 8 5 9 69 97 5 5 5 5 0 0 0 1 0 0 0 0 0 0 0 0
100 100 100 100 100 100 100 100 100 100 100 91 95 87 99 100 100 82 70 66 35 54 28 63 37 77 56 28 5 5 7 25 5 4 0 0 5 1 1 3 4 0 0 0 0
100 100 100 100 100 100 100 100 100 100 100 100 100 100 100 100 100 100 100 100 100 95 22 31 98 100 100 48 6 5 5 5 5 0 0 0 2 0 5 5 1 0 0 0 0
100 100 100 100 100 100 100 100 100 100 100 100 100 100 100 100 100 100 100 100 100 100 81 100 100 100 100 92 16 29 21 30 5 0 0 3 5 5 5 29 10 4 2 0 0
100 100 100 100 100 100 100 100 100 100 100 100 100 100 100 100 100 100 100 100 100 100 100 100 100 100 100 100 100 90 58 47 5 0 0 0 16 14 58 16 28 43 5 4 0
100 100 100 100 100 100 100 100 100 100 64 100 100 100 100 100 100 100 100 100 100 100 100 79 100 100 100 100 100 55 100 37 7 0 0 0 21 100 99 5 5 38 5 5 5
100 100 100 100 100 100 100 100 100 100 86 100 100 100 100 100 100 100 100 100 100 100 100 98 100 100 100 100 100 99 100 27 5 0 0 1 0 94 100 80 24 5 5 5 5
100 100 100 100 100 100 100 100 100 100 83 100 100 100 100 100 100 100 100 100 100 100 100 100 100 100 100 100 100 100 58 25 2 0 0 10 1 64 100 100 100 5 3 5 0
100 100 100 100 100 100 100 100 100 100 33 12 25 100 100 100 100 100 100 100 100 100 100 100 100 100 100 100 100 100 100 14 0 0 0 0 0 90 99 100 100 100 69 22 12
100 100 100 100 100 100 100 100 100 100 51 43 100 94 100 87 100 100 100 100 100 100 100 100 100 100 100 100 100 100 94 24 2 5 2 0 1 2 1 83 100 87 100 57 5
100 100 100 100 100 100 100 100 100 100 100 100 100 100 84 31 47 81 100 97 100 100 100 100 100 100 100 100 100 89 7 88 79 27 23 2 1 5 5 1 5 14 5 74 82
42 100 100 100 100 100 100 100 99 100 100 100 100 100 97 100 98 53 5 5 16 95 100 100 99 61 90 100 33 5 47 17 8 1 5 1 0 1 4 3 4 12 98 88 21
98 90 100 100 100 100 100 100 87 100 100 100 100 100 99 99 100 62 6 32 98 100 100 100 100 98 100 49 12 19 5 5 36 12 5 12 0 5 7 5 5 15 5 41 20
100 94 100 100 100 100 100 100 100 100 100 100 86 100 100 100 100 100 5 100 100 100 100 100 100 15 5 7 5 5 5 5 5 83 5 2 2 8 1 5 4 5 7 33 72
100 96 99 100 100 100 100 100 100 100 100 100 100 100 100 96 100 93 34 100 100 100 100 100 100 100 94 20 5 4 64 100 100 37 0 2 21 8 1 1 0 3 4 6 34
99 75 22 100 95 100 100 100 100 100 100 100 100 100 100 100 96 50 15 100 100 98 100 100 100 100 100 100 100 87 92 100 100 46 3 0 1 5 4 1 0 3 2 1 5
12 52 29 89 84 100 100 100 100 100 100 100 100 100 100 100 100 97 42 77 100 100 100 100 100 100 100 100 100 100 100 100 57 55 8 2 2 96 83 8 3 0 0 0 2
50 8 76 48 9 98 100 100 100 100 100 100 100 100 100 100 100 100 94 100 100 100 100 100 100 100 100 100 100 100 99 23 8 26 88 99 14 100 66 7 6 5 4 2 5
79 11 100 14 23 16 76 93 100 100 100 100 100 100 100 100 100 100 100 100 100 100 100 100 100 100 99 100 100 100 6 97 89 85 100 35 40 100 51 100 37 34 5 5 30